| time (UTC) | temp C | wind direction | speed KPH | gust KPH | rain 1hr cm | rain 24hr cm | rain mn cm | humidity % | barometer mb |
| 20260509185239 | 18 | 342 | 1.6 | 11.3 | 0.00 | 0.00 | 0.00 | 58 | 1021.9 |
| 20260509184807 | 18 | 9 | 1.6 | 8.0 | 0.00 | 0.00 | 0.00 | 60 | 1021.9 |
| 20260509184735 | 18 | 9 | 1.6 | 8.0 | 0.00 | 0.00 | 0.00 | 60 | 1021.9 |
| 20260509184303 | 18 | 31 | 1.6 | 8.0 | 0.00 | 0.00 | 0.00 | 58 | 1021.9 |
| 20260509184231 | 18 | 31 | 1.6 | 8.0 | 0.00 | 0.00 | 0.00 | 58 | 1021.9 |
| 20260509183759 | 18 | 336 | 3.2 | 8.0 | 0.00 | 0.00 | 0.00 | 60 | 1022.0 |
| 20260509183727 | 18 | 336 | 3.2 | 8.0 | 0.00 | 0.00 | 0.00 | 60 | 1022.0 |
| 20260509183235 | 17 | 319 | 0.0 | 8.0 | 0.00 | 0.00 | 0.00 | 60 | 1021.9 |
| 20260509182722 | 17 | 296 | 3.2 | 8.0 | 0.00 | 0.00 | 0.00 | 61 | 1022.0 |
| 20260509182234 | 17 | 270 | 1.6 | 6.4 | 0.00 | 0.00 | 0.00 | 60 | 1022.0 |
| 20260509181802 | 17 | 302 | 3.2 | 8.0 | 0.00 | 0.00 | 0.00 | 61 | 1022.0 |
| 20260509181730 | 17 | 302 | 3.2 | 8.0 | 0.00 | 0.00 | 0.00 | 61 | 1022.0 |
| 20260509181238 | 17 | 263 | 3.2 | 8.0 | 0.00 | 0.00 | 0.00 | 61 | 1022.0 |
| 20260509180726 | 17 | 314 | 1.6 | 11.3 | 0.00 | 0.00 | 0.00 | 62 | 1022.2 |
| 20260509180234 | 17 | 327 | 1.6 | 11.3 | 0.00 | 0.00 | 0.00 | 62 | 1022.1 |
| 20260509175721 | 17 | 48 | 3.2 | 6.4 | 0.00 | 0.00 | 0.00 | 63 | 1022.2 |
| 20260509175309 | 16 | 350 | 3.2 | 8.0 | 0.00 | 0.00 | 0.00 | 64 | 1022.2 |
| 20260509175237 | 16 | 350 | 3.2 | 8.0 | 0.00 | 0.00 | 0.00 | 64 | 1022.2 |
| 20260509174725 | 16 | 32 | 4.8 | 8.0 | 0.00 | 0.00 | 0.00 | 64 | 1022.3 |
| 20260509174233 | 16 | 279 | 4.8 | 8.0 | 0.00 | 0.00 | 0.00 | 65 | 1022.1 |
| 20260509173721 | 16 | 360 | 4.8 | 11.3 | 0.00 | 0.00 | 0.00 | 67 | 1022.2 |
| 20260509173309 | 16 | 234 | 4.8 | 11.3 | 0.00 | 0.00 | 0.00 | 68 | 1022.2 |
| 20260509172725 | 16 | 292 | 3.2 | 8.0 | 0.00 | 0.00 | 0.00 | 68 | 1022.1 |
| 20260509172252 | 16 | 292 | 0.0 | 12.9 | 0.00 | 0.00 | 0.00 | 69 | 1022.3 |
| 20260509171809 | 15 | 19 | 4.8 | 12.9 | 0.00 | 0.00 | 0.00 | 69 | 1022.3 |
| 20260509171737 | 15 | 19 | 4.8 | 12.9 | 0.00 | 0.00 | 0.00 | 69 | 1022.3 |
| 20260509171225 | 15 | 254 | 4.8 | 6.4 | 0.00 | 0.00 | 0.00 | 70 | 1022.2 |
| 20260509170737 | 15 | 282 | 3.2 | 6.4 | 0.00 | 0.00 | 0.00 | 70 | 1022.2 |
| 20260509170225 | 15 | 260 | 4.8 | 6.4 | 0.00 | 0.00 | 0.00 | 71 | 1022.0 |
| 20260509165811 | 15 | 290 | 1.6 | 9.7 | 0.00 | 0.00 | 0.00 | 71 | 1022.2 |
| 20260509165228 | 16 | 248 | 6.4 | 9.7 | 0.00 | 0.00 | 0.00 | 70 | 1022.5 |
| 20260509164736 | 16 | 304 | 3.2 | 6.4 | 0.00 | 0.00 | 0.00 | 70 | 1022.6 |
| 20260509164224 | 16 | 346 | 3.2 | 6.4 | 0.00 | 0.00 | 0.00 | 70 | 1022.7 |
| 20260509163811 | 15 | 109 | 1.6 | 4.8 | 0.00 | 0.00 | 0.00 | 69 | 1022.6 |
| 20260509163227 | 15 | 77 | 1.6 | 4.8 | 0.00 | 0.00 | 0.00 | 69 | 1022.6 |
| 20260509162734 | 15 | 195 | 1.6 | 3.2 | 0.00 | 0.00 | 0.00 | 69 | 1022.6 |
| 20260509162222 | 15 | 96 | 1.6 | 4.8 | 0.00 | 0.00 | 0.00 | 69 | 1022.5 |
| 20260509161730 | 15 | 49 | 0.0 | 6.4 | 0.00 | 0.00 | 0.00 | 71 | 1022.5 |
| 20260509161221 | 15 | 99 | 3.2 | 4.8 | 0.00 | 0.00 | 0.00 | 71 | 1022.7 |
| 20260509160729 | 15 | 102 | 0.0 | 3.2 | 0.00 | 0.00 | 0.00 | 72 | 1022.7 |
| 20260509160237 | 15 | 144 | 1.6 | 3.2 | 0.00 | 0.00 | 0.00 | 73 | 1022.7 |
| 20260509155724 | 14 | 105 | 1.6 | 3.2 | 0.00 | 0.00 | 0.00 | 73 | 1022.9 |
| 20260509155232 | 14 | 104 | 1.6 | 3.2 | 0.00 | 0.00 | 0.00 | 74 | 1022.8 |
| 20260509154740 | 14 | 355 | 0.0 | 3.2 | 0.00 | 0.00 | 0.00 | 74 | 1022.9 |
| 20260509154228 | 14 | 266 | 1.6 | 4.8 | 0.00 | 0.00 | 0.00 | 74 | 1022.9 |
| 20260509153736 | 14 | 113 | 1.6 | 4.8 | 0.00 | 0.00 | 0.00 | 75 | 1022.8 |
| 20260509153224 | 13 | 86 | 0.0 | 3.2 | 0.00 | 0.00 | 0.00 | 76 | 1022.8 |
| 20260509152731 | 13 | 119 | 0.0 | 3.2 | 0.00 | 0.00 | 0.00 | 76 | 1022.7 |
| 20260509152222 | 13 | 134 | 3.2 | 4.8 | 0.00 | 0.00 | 0.00 | 77 | 1022.7 |
| 20260509151809 | 13 | 120 | 1.6 | 4.8 | 0.00 | 0.00 | 0.00 | 76 | 1022.8 |
| 20260509151738 | 13 | 120 | 1.6 | 4.8 | 0.00 | 0.00 | 0.00 | 76 | 1022.8 |
| 20260509151226 | 13 | 190 | 0.0 | 3.2 | 0.00 | 0.00 | 0.00 | 79 | 1023.2 |
| 20260509150732 | 13 | 134 | 0.0 | 3.2 | 0.00 | 0.00 | 0.00 | 79 | 1023.2 |
| 20260509150226 | 13 | 89 | 0.0 | 3.2 | 0.00 | 0.00 | 0.00 | 80 | 1023.2 |
| 20260509145731 | 12 | 89 | 0.0 | 3.2 | 0.00 | 0.00 | 0.00 | 82 | 1023.3 |
| 20260509145259 | 12 | 89 | 0.0 | 4.8 | 0.00 | 0.00 | 0.00 | 83 | 1023.5 |
| 20260509144736 | 12 | 72 | 1.6 | 6.4 | 0.00 | 0.00 | 0.00 | 84 | 1023.4 |
| 20260509144304 | 11 | 94 | 1.6 | 6.4 | 0.00 | 0.00 | 0.00 | 85 | 1023.3 |
| 20260509143740 | 11 | 84 | 1.6 | 4.8 | 0.00 | 0.00 | 0.00 | 85 | 1023.3 |
| 20260509143228 | 11 | 84 | 1.6 | 3.2 | 0.00 | 0.00 | 0.00 | 85 | 1023.4 |
| 20260509142755 | 11 | 83 | 0.0 | 0.0 | 0.00 | 0.00 | 0.00 | 85 | 1023.4 |
| 20260509142723 | 11 | 83 | 0.0 | 0.0 | 0.00 | 0.00 | 0.00 | 85 | 1023.4 |
| 20260509142310 | 11 | 124 | 0.0 | 0.0 | 0.00 | 0.00 | 0.00 | 86 | 1023.4 |
| 20260509141727 | 10 | 194 | 0.0 | 0.0 | 0.00 | 0.00 | 0.00 | 86 | 1023.5 |
| 20260509141235 | 10 | 194 | 0.0 | 0.0 | 0.00 | 0.00 | 0.00 | 87 | 1023.5 |
| 20260509140727 | 10 | 194 | 0.0 | 0.0 | 0.00 | 0.00 | 0.00 | 88 | 1023.4 |
| 20260509140255 | 9 | 137 | 0.0 | 0.0 | 0.00 | 0.00 | 0.00 | 89 | 1023.5 |
| 20260509140223 | 9 | 137 | 0.0 | 0.0 | 0.00 | 0.00 | 0.00 | 89 | 1023.5 |
| 20260509135729 | 9 | 137 | 0.0 | 0.0 | 0.00 | 0.00 | 0.00 | 92 | 1023.4 |
| 20260509135237 | 8 | 137 | 0.0 | 0.0 | 0.00 | 0.00 | 0.00 | 92 | 1023.5 |
| 20260509134805 | 8 | 137 | 0.0 | 0.0 | 0.00 | 0.00 | 0.00 | 92 | 1023.5 |
| 20260509134733 | 8 | 137 | 0.0 | 0.0 | 0.00 | 0.00 | 0.00 | 92 | 1023.5 |
| 20260509134221 | 8 | 138 | 0.0 | 0.0 | 0.00 | 0.00 | 0.00 | 92 | 1023.6 |
| 20260509133809 | 7 | 137 | 0.0 | 0.0 | 0.00 | 0.00 | 0.00 | 93 | 1023.5 |
| 20260509133226 | 7 | 137 | 0.0 | 0.0 | 0.00 | 0.00 | 0.00 | 93 | 1023.5 |
| 20260509132733 | 7 | 138 | 0.0 | 0.0 | 0.00 | 0.00 | 0.00 | 93 | 1023.6 |
| 20260509132221 | 7 | 137 | 0.0 | 0.0 | 0.00 | 0.00 | 0.00 | 93 | 1023.6 |
| 20260509131729 | 7 | 138 | 0.0 | 0.0 | 0.00 | 0.00 | 0.00 | 93 | 1023.5 |
| 20260509131237 | 7 | 138 | 0.0 | 0.0 | 0.00 | 0.00 | 0.00 | 92 | 1023.5 |
| 20260509130725 | 7 | 137 | 0.0 | 0.0 | 0.00 | 0.00 | 0.00 | 92 | 1023.4 |
| 20260509130237 | 7 | 137 | 0.0 | 0.0 | 0.00 | 0.00 | 0.00 | 92 | 1023.3 |
| 20260509125724 | 7 | 137 | 0.0 | 0.0 | 0.00 | 0.00 | 0.00 | 93 | 1023.4 |
| 20260509125232 | 7 | 138 | 0.0 | 0.0 | 0.00 | 0.00 | 0.00 | 92 | 1023.4 |
| 20260509124800 | 7 | 137 | 0.0 | 0.0 | 0.00 | 0.00 | 0.00 | 92 | 1023.4 |
| 20260509124256 | 7 | 137 | 0.0 | 0.0 | 0.00 | 0.00 | 0.00 | 91 | 1023.3 |
| 20260509124224 | 7 | 137 | 0.0 | 0.0 | 0.00 | 0.00 | 0.00 | 91 | 1023.3 |
| 20260509123732 | 7 | 137 | 0.0 | 0.0 | 0.00 | 0.00 | 0.00 | 90 | 1023.3 |
| 20260509123239 | 7 | 137 | 0.0 | 0.0 | 0.00 | 0.00 | 0.00 | 90 | 1023.3 |
| 20260509122727 | 7 | 137 | 0.0 | 0.0 | 0.00 | 0.00 | 0.00 | 90 | 1023.4 |
| 20260509122233 | 8 | 137 | 0.0 | 0.0 | 0.00 | 0.00 | 0.00 | 90 | 1023.4 |
| 20260509121721 | 8 | 138 | 0.0 | 0.0 | 0.00 | 0.00 | 0.00 | 91 | 1023.5 |
| 20260509121229 | 8 | 137 | 0.0 | 0.0 | 0.00 | 0.00 | 0.00 | 90 | 1023.6 |
| 20260509120736 | 8 | 137 | 0.0 | 0.0 | 0.00 | 0.00 | 0.00 | 89 | 1023.6 |
| 20260509120228 | 8 | 137 | 0.0 | 0.0 | 0.00 | 0.00 | 0.00 | 90 | 1023.5 |
| 20260509115735 | 8 | 137 | 0.0 | 0.0 | 0.00 | 0.00 | 0.00 | 90 | 1023.5 |
| 20260509115223 | 8 | 137 | 0.0 | 0.0 | 0.00 | 0.00 | 0.00 | 89 | 1023.6 |
| 20260509114731 | 8 | 137 | 0.0 | 0.0 | 0.00 | 0.00 | 0.00 | 90 | 1023.6 |
| 20260509114239 | 8 | 137 | 0.0 | 0.0 | 0.00 | 0.00 | 0.00 | 90 | 1023.7 |
| 20260509113727 | 9 | 137 | 0.0 | 0.0 | 0.00 | 0.00 | 0.00 | 90 | 1023.6 |
| 20260509113235 | 9 | 137 | 0.0 | 0.0 | 0.00 | 0.00 | 0.00 | 91 | 1023.6 |
| 20260509112722 | 9 | 138 | 0.0 | 0.0 | 0.00 | 0.00 | 0.00 | 90 | 1023.6 |
| 20260509112230 | 9 | 137 | 0.0 | 0.0 | 0.00 | 0.00 | 0.00 | 90 | 1023.6 |
| 20260509111757 | 9 | 138 | 0.0 | 0.0 | 0.00 | 0.00 | 0.00 | 89 | 1023.6 |
| 20260509111254 | 9 | 137 | 0.0 | 0.0 | 0.00 | 0.00 | 0.00 | 88 | 1023.7 |
| 20260509110811 | 9 | 137 | 0.0 | 0.0 | 0.00 | 0.00 | 0.00 | 89 | 1023.8 |
| 20260509110307 | 10 | 137 | 0.0 | 0.0 | 0.00 | 0.00 | 0.00 | 89 | 1023.8 |
| 20260509105726 | 10 | 137 | 0.0 | 0.0 | 0.00 | 0.00 | 0.00 | 88 | 1023.7 |
| 20260509105234 | 10 | 137 | 0.0 | 0.0 | 0.00 | 0.00 | 0.00 | 88 | 1023.9 |
| 20260509104801 | 10 | 137 | 0.0 | 0.0 | 0.00 | 0.00 | 0.00 | 87 | 1023.9 |
| 20260509104256 | 10 | 137 | 0.0 | 0.0 | 0.00 | 0.00 | 0.00 | 87 | 1023.8 |
| 20260509103753 | 10 | 137 | 0.0 | 0.0 | 0.00 | 0.00 | 0.00 | 87 | 1023.9 |
| 20260509103229 | 10 | 137 | 0.0 | 0.0 | 0.00 | 0.00 | 0.00 | 86 | 1023.8 |
| 20260509102736 | 10 | 137 | 0.0 | 0.0 | 0.00 | 0.00 | 0.00 | 86 | 1023.9 |
| 20260509102305 | 11 | 137 | 0.0 | 0.0 | 0.00 | 0.00 | 0.00 | 86 | 1023.9 |
| 20260509101740 | 11 | 138 | 0.0 | 0.0 | 0.00 | 0.00 | 0.00 | 86 | 1023.8 |
| 20260509101228 | 11 | 137 | 0.0 | 0.0 | 0.00 | 0.00 | 0.00 | 85 | 1023.9 |
| 20260509100736 | 11 | 137 | 0.0 | 0.0 | 0.00 | 0.00 | 0.00 | 85 | 1023.8 |
| 20260509100303 | 11 | 137 | 0.0 | 0.0 | 0.00 | 0.00 | 0.00 | 85 | 1024.0 |
| 20260509095759 | 11 | 137 | 0.0 | 0.0 | 0.00 | 0.00 | 0.00 | 85 | 1024.1 |
| 20260509095727 | 11 | 137 | 0.0 | 0.0 | 0.00 | 0.00 | 0.00 | 85 | 1024.1 |
| 20260509095255 | 11 | 137 | 0.0 | 0.0 | 0.00 | 0.00 | 0.00 | 85 | 1024.0 |
| 20260509095223 | 11 | 137 | 0.0 | 0.0 | 0.00 | 0.00 | 0.00 | 85 | 1024.0 |
| 20260509094731 | 11 | 137 | 0.0 | 0.0 | 0.00 | 0.00 | 0.00 | 85 | 1024.0 |
| 20260509094239 | 11 | 137 | 0.0 | 0.0 | 0.00 | 0.00 | 0.00 | 85 | 1024.1 |
| 20260509093727 | 11 | 137 | 0.0 | 0.0 | 0.00 | 0.00 | 0.00 | 85 | 1024.1 |
| 20260509093235 | 11 | 137 | 0.0 | 0.0 | 0.00 | 0.00 | 0.00 | 84 | 1024.1 |
| 20260509092726 | 11 | 137 | 0.0 | 0.0 | 0.00 | 0.00 | 0.00 | 84 | 1024.1 |
| 20260509092253 | 11 | 137 | 0.0 | 0.0 | 0.00 | 0.00 | 0.00 | 84 | 1024.2 |
| 20260509091730 | 11 | 138 | 0.0 | 0.0 | 0.00 | 0.00 | 0.00 | 84 | 1024.2 |
| 20260509091258 | 11 | 137 | 0.0 | 0.0 | 0.00 | 0.00 | 0.00 | 84 | 1024.3 |
| 20260509090734 | 11 | 137 | 0.0 | 0.0 | 0.00 | 0.00 | 0.00 | 84 | 1024.3 |
| 20260509090222 | 11 | 137 | 0.0 | 0.0 | 0.00 | 0.00 | 0.00 | 84 | 1024.3 |
| 20260509085730 | 11 | 137 | 0.0 | 0.0 | 0.00 | 0.00 | 0.00 | 84 | 1024.3 |
| 20260509085237 | 11 | 137 | 0.0 | 0.0 | 0.00 | 0.00 | 0.00 | 84 | 1024.3 |
| 20260509084805 | 11 | 137 | 0.0 | 0.0 | 0.00 | 0.00 | 0.00 | 84 | 1024.3 |
| 20260509084221 | 11 | 137 | 0.0 | 0.0 | 0.00 | 0.00 | 0.00 | 84 | 1024.3 |
| 20260509083809 | 11 | 137 | 0.0 | 0.0 | 0.00 | 0.00 | 0.00 | 84 | 1024.4 |
| 20260509083737 | 11 | 137 | 0.0 | 0.0 | 0.00 | 0.00 | 0.00 | 84 | 1024.4 |
| 20260509083225 | 11 | 137 | 0.0 | 0.0 | 0.00 | 0.00 | 0.00 | 84 | 1024.4 |
| 20260509082732 | 11 | 138 | 0.0 | 0.0 | 0.00 | 0.00 | 0.00 | 84 | 1024.4 |
| 20260509082224 | 10 | 137 | 0.0 | 0.0 | 0.00 | 0.00 | 0.00 | 84 | 1024.4 |
| 20260509081732 | 10 | 137 | 0.0 | 0.0 | 0.00 | 0.00 | 0.00 | 84 | 1024.5 |
| 20260509081240 | 10 | 137 | 0.0 | 0.0 | 0.00 | 0.00 | 0.00 | 84 | 1024.4 |
| 20260509080728 | 10 | 137 | 0.0 | 0.0 | 0.00 | 0.00 | 0.00 | 84 | 1024.4 |
| 20260509080236 | 10 | 137 | 0.0 | 0.0 | 0.00 | 0.00 | 0.00 | 85 | 1024.4 |
| 20260509075723 | 10 | 137 | 0.0 | 0.0 | 0.00 | 0.00 | 0.00 | 85 | 1024.3 |
| 20260509075326 | 10 | 141 | 0.0 | 0.0 | 0.00 | 0.00 | 0.00 | 85 | 1024.4 |
| 20260509075240 | 10 | 141 | 0.0 | 0.0 | 0.00 | 0.00 | 0.00 | 85 | 1024.4 |
| 20260509074804 | 10 | 141 | 0.0 | 0.0 | 0.00 | 0.00 | 0.00 | 85 | 1024.4 |
| 20260509074732 | 10 | 141 | 0.0 | 0.0 | 0.00 | 0.00 | 0.00 | 85 | 1024.4 |
| 20260509074239 | 10 | 141 | 0.0 | 0.0 | 0.00 | 0.00 | 0.00 | 85 | 1024.4 |
| 20260509073807 | 10 | 141 | 0.0 | 0.0 | 0.00 | 0.00 | 0.00 | 86 | 1024.3 |
| 20260509073735 | 10 | 141 | 0.0 | 0.0 | 0.00 | 0.00 | 0.00 | 86 | 1024.3 |
| 20260509073223 | 10 | 141 | 0.0 | 0.0 | 0.00 | 0.00 | 0.00 | 86 | 1024.3 |
| 20260509072730 | 10 | 141 | 0.0 | 0.0 | 0.00 | 0.00 | 0.00 | 86 | 1024.3 |
| 20260509072238 | 10 | 141 | 0.0 | 0.0 | 0.00 | 0.00 | 0.00 | 86 | 1024.3 |
| 20260509071726 | 10 | 141 | 0.0 | 0.0 | 0.00 | 0.00 | 0.00 | 86 | 1024.3 |
| 20260509071254 | 10 | 141 | 0.0 | 0.0 | 0.00 | 0.00 | 0.00 | 86 | 1024.2 |
| 20260509070731 | 10 | 141 | 0.0 | 0.0 | 0.00 | 0.00 | 0.00 | 86 | 1024.2 |
| 20260509070222 | 10 | 141 | 0.0 | 0.0 | 0.00 | 0.00 | 0.00 | 86 | 1024.1 |
| 20260509065808 | 10 | 141 | 0.0 | 0.0 | 0.00 | 0.00 | 0.00 | 86 | 1024.1 |
| 20260509065225 | 10 | 141 | 0.0 | 0.0 | 0.00 | 0.00 | 0.00 | 86 | 1024.2 |
| 20260509064753 | 9 | 141 | 0.0 | 0.0 | 0.00 | 0.00 | 0.00 | 86 | 1024.1 |
| 20260509064721 | 9 | 141 | 0.0 | 0.0 | 0.00 | 0.00 | 0.00 | 86 | 1024.1 |
| 20260509064309 | 9 | 141 | 0.0 | 0.0 | 0.00 | 0.00 | 0.00 | 86 | 1024.2 |
| 20260509063726 | 9 | 141 | 0.0 | 0.0 | 0.00 | 0.00 | 0.00 | 85 | 1024.1 |
| 20260509063254 | 10 | 141 | 0.0 | 0.0 | 0.00 | 0.00 | 0.00 | 85 | 1024.1 |
| 20260509062810 | 10 | 144 | 0.0 | 0.0 | 0.00 | 0.00 | 0.00 | 85 | 1024.0 |
| 20260509062738 | 10 | 144 | 0.0 | 0.0 | 0.00 | 0.00 | 0.00 | 85 | 1024.0 |
| 20260509062226 | 10 | 144 | 0.0 | 0.0 | 0.00 | 0.00 | 0.00 | 85 | 1024.1 |
| 20260509061734 | 10 | 144 | 0.0 | 0.0 | 0.00 | 0.00 | 0.00 | 84 | 1024.0 |
| 20260509061222 | 10 | 144 | 0.0 | 0.0 | 0.00 | 0.00 | 0.00 | 83 | 1024.0 |
| 20260509060810 | 10 | 144 | 0.0 | 0.0 | 0.00 | 0.00 | 0.00 | 83 | 1023.8 |
| 20260509060227 | 10 | 144 | 0.0 | 0.0 | 0.00 | 0.00 | 0.00 | 83 | 1023.8 |
| 20260509055734 | 10 | 144 | 0.0 | 0.0 | 0.00 | 0.00 | 0.00 | 82 | 1023.8 |
| 20260509055302 | 10 | 144 | 0.0 | 0.0 | 0.00 | 0.00 | 0.00 | 82 | 1023.6 |
| 20260509055230 | 10 | 144 | 0.0 | 0.0 | 0.00 | 0.00 | 0.00 | 82 | 1023.6 |
| 20260509054737 | 10 | 144 | 0.0 | 0.0 | 0.00 | 0.00 | 0.00 | 82 | 1023.7 |
| 20260509054225 | 11 | 144 | 0.0 | 0.0 | 0.00 | 0.00 | 0.00 | 82 | 1023.8 |
| 20260509053737 | 11 | 144 | 0.0 | 0.0 | 0.00 | 0.00 | 0.00 | 82 | 1023.7 |
| 20260509053224 | 11 | 144 | 0.0 | 3.2 | 0.00 | 0.00 | 0.00 | 81 | 1023.7 |
| 20260509052731 | 11 | 144 | 0.0 | 3.2 | 0.00 | 0.00 | 0.00 | 80 | 1023.8 |
| 20260509052239 | 11 | 144 | 0.0 | 3.2 | 0.00 | 0.00 | 0.00 | 80 | 1023.7 |
| 20260509051727 | 11 | 144 | 0.0 | 0.0 | 0.00 | 0.00 | 0.00 | 80 | 1023.7 |
| 20260509051254 | 11 | 144 | 0.0 | 0.0 | 0.00 | 0.00 | 0.00 | 79 | 1023.7 |
| 20260509050731 | 11 | 144 | 0.0 | 0.0 | 0.00 | 0.00 | 0.00 | 79 | 1023.7 |
| 20260509050239 | 11 | 144 | 0.0 | 3.2 | 0.00 | 0.00 | 0.00 | 79 | 1023.6 |
| 20260509045806 | 11 | 144 | 0.0 | 3.2 | 0.00 | 0.00 | 0.00 | 78 | 1023.7 |
| 20260509045223 | 11 | 144 | 0.0 | 3.2 | 0.00 | 0.00 | 0.00 | 78 | 1023.7 |
| 20260509044730 | 11 | 144 | 1.6 | 3.2 | 0.00 | 0.00 | 0.00 | 78 | 1023.7 |
| 20260509044258 | 11 | 284 | 0.0 | 0.0 | 0.00 | 0.00 | 0.00 | 77 | 1023.7 |
| 20260509044226 | 11 | 284 | 0.0 | 0.0 | 0.00 | 0.00 | 0.00 | 77 | 1023.7 |
| 20260509043754 | 11 | 284 | 0.0 | 3.2 | 0.00 | 0.00 | 0.00 | 77 | 1023.6 |
| 20260509043722 | 11 | 284 | 0.0 | 3.2 | 0.00 | 0.00 | 0.00 | 77 | 1023.6 |
| 20260509043309 | 11 | 284 | 0.0 | 3.2 | 0.00 | 0.00 | 0.00 | 77 | 1023.6 |
| 20260509042725 | 11 | 284 | 0.0 | 3.2 | 0.00 | 0.00 | 0.00 | 76 | 1023.6 |
| 20260509042237 | 12 | 324 | 0.0 | 3.2 | 0.00 | 0.00 | 0.00 | 76 | 1023.6 |
| 20260509041725 | 12 | 324 | 0.0 | 3.2 | 0.00 | 0.00 | 0.00 | 75 | 1023.6 |
| 20260509041233 | 12 | 333 | 0.0 | 3.2 | 0.00 | 0.00 | 0.00 | 74 | 1023.6 |
| 20260509040721 | 12 | 336 | 0.0 | 4.8 | 0.00 | 0.00 | 0.00 | 74 | 1023.4 |
| 20260509040229 | 12 | 9 | 1.6 | 4.8 | 0.00 | 0.00 | 0.00 | 73 | 1023.4 |
| 20260509035755 | 12 | 279 | 1.6 | 3.2 | 0.00 | 0.00 | 0.00 | 73 | 1023.3 |
| 20260509035232 | 12 | 215 | 0.0 | 3.2 | 0.00 | 0.00 | 0.00 | 73 | 1023.2 |
| 20260509034740 | 12 | 227 | 0.0 | 3.2 | 0.00 | 0.00 | 0.00 | 72 | 1023.2 |
| 20260509034228 | 13 | 227 | 0.0 | 3.2 | 0.00 | 0.00 | 0.00 | 71 | 1023.2 |
| 20260509033735 | 13 | 227 | 0.0 | 3.2 | 0.00 | 0.00 | 0.00 | 70 | 1023.0 |
| 20260509033227 | 13 | 227 | 1.6 | 3.2 | 0.00 | 0.00 | 0.00 | 69 | 1022.9 |
| 20260509032753 | 13 | 175 | 0.0 | 3.2 | 0.00 | 0.00 | 0.00 | 68 | 1022.8 |
| 20260509032230 | 13 | 213 | 0.0 | 3.2 | 0.00 | 0.00 | 0.00 | 68 | 1022.7 |
| 20260509031738 | 13 | 178 | 0.0 | 6.4 | 0.00 | 0.00 | 0.00 | 67 | 1022.8 |
| 20260509031226 | 13 | 200 | 1.6 | 6.4 | 0.00 | 0.00 | 0.00 | 66 | 1022.9 |
| 20260509030734 | 14 | 205 | 0.0 | 3.2 | 0.00 | 0.00 | 0.00 | 65 | 1022.8 |
| 20260509030222 | 14 | 221 | 0.0 | 6.4 | 0.00 | 0.00 | 0.00 | 65 | 1022.8 |
| 20260509025809 | 14 | 225 | 0.0 | 6.4 | 0.00 | 0.00 | 0.00 | 64 | 1022.9 |
| 20260509025226 | 14 | 257 | 1.6 | 4.8 | 0.00 | 0.00 | 0.00 | 63 | 1022.9 |
| 20260509024734 | 15 | 140 | 0.0 | 4.8 | 0.00 | 0.00 | 0.00 | 63 | 1022.9 |
| 20260509024222 | 15 | 142 | 0.0 | 6.4 | 0.00 | 0.00 | 0.00 | 62 | 1022.8 |
| 20260509023730 | 15 | 289 | 0.0 | 6.4 | 0.00 | 0.00 | 0.00 | 62 | 1022.8 |
| 20260509023222 | 15 | 213 | 0.0 | 3.2 | 0.00 | 0.00 | 0.00 | 61 | 1022.8 |
| 20260509022808 | 15 | 146 | 0.0 | 4.8 | 0.00 | 0.00 | 0.00 | 59 | 1022.6 |
| 20260509022225 | 15 | 22 | 0.0 | 12.9 | 0.00 | 0.00 | 0.00 | 59 | 1022.5 |
| 20260509021753 | 16 | 194 | 3.2 | 12.9 | 0.00 | 0.00 | 0.00 | 58 | 1022.4 |
| 20260509021721 | 16 | 194 | 3.2 | 12.9 | 0.00 | 0.00 | 0.00 | 58 | 1022.4 |
| 20260509021308 | 16 | 275 | 0.0 | 12.9 | 0.00 | 0.00 | 0.00 | 59 | 1022.6 |
| 20260509020725 | 16 | 304 | 4.8 | 12.9 | 0.00 | 0.00 | 0.00 | 57 | 1022.7 |
| 20260509020313 | 16 | 236 | 1.6 | 11.3 | 0.00 | 0.00 | 0.00 | 56 | 1022.7 |
| 20260509015728 | 16 | 60 | 1.6 | 4.8 | 0.00 | 0.00 | 0.00 | 56 | 1022.8 |
| 20260509015236 | 16 | 302 | 1.6 | 3.2 | 0.00 | 0.00 | 0.00 | 56 | 1022.7 |
| 20260509014724 | 16 | 304 | 1.6 | 11.3 | 0.00 | 0.00 | 0.00 | 56 | 1022.6 |
| 20260509014232 | 16 | 282 | 3.2 | 12.9 | 0.00 | 0.00 | 0.00 | 55 | 1022.6 |
| 20260509013800 | 16 | 269 | 1.6 | 8.0 | 0.00 | 0.00 | 0.00 | 56 | 1022.6 |
| 20260509013728 | 16 | 269 | 1.6 | 8.0 | 0.00 | 0.00 | 0.00 | 56 | 1022.6 |
| 20260509013236 | 16 | 51 | 3.2 | 12.9 | 0.00 | 0.00 | 0.00 | 55 | 1022.7 |
| 20260509012723 | 16 | 212 | 1.6 | 9.7 | 0.00 | 0.00 | 0.00 | 55 | 1022.7 |
| 20260509012231 | 16 | 5 | 3.2 | 6.4 | 0.00 | 0.00 | 0.00 | 55 | 1022.6 |
| 20260509011723 | 16 | 282 | 3.2 | 9.7 | 0.00 | 0.00 | 0.00 | 55 | 1022.7 |
| 20260509011231 | 16 | 317 | 3.2 | 9.7 | 0.00 | 0.00 | 0.00 | 55 | 1022.9 |
| 20260509010739 | 16 | 257 | 3.2 | 8.0 | 0.00 | 0.00 | 0.00 | 54 | 1022.9 |
| 20260509010307 | 16 | 219 | 1.6 | 6.4 | 0.00 | 0.00 | 0.00 | 55 | 1023.0 |
| 20260509010235 | 16 | 219 | 1.6 | 6.4 | 0.00 | 0.00 | 0.00 | 55 | 1023.0 |
| 20260509005722 | 16 | 69 | 1.6 | 12.9 | 0.00 | 0.00 | 0.00 | 55 | 1022.9 |
| 20260509005230 | 16 | 134 | 1.6 | 12.9 | 0.00 | 0.00 | 0.00 | 54 | 1023.1 |
| 20260509004738 | 16 | 290 | 4.8 | 17.7 | 0.00 | 0.00 | 0.00 | 54 | 1023.1 |
| 20260509004226 | 16 | 283 | 1.6 | 17.7 | 0.00 | 0.00 | 0.00 | 54 | 1023.0 |
| 20260509003734 | 17 | 277 | 9.7 | 17.7 | 0.00 | 0.00 | 0.00 | 53 | 1023.0 |
| 20260509003222 | 17 | 260 | 3.2 | 12.9 | 0.00 | 0.00 | 0.00 | 53 | 1023.0 |
| 20260509002733 | 17 | 59 | 1.6 | 14.5 | 0.00 | 0.00 | 0.00 | 54 | 1023.0 |
| 20260509002221 | 17 | 260 | 3.2 | 14.5 | 0.00 | 0.00 | 0.00 | 53 | 1022.9 |
| 20260509001809 | 17 | 279 | 3.2 | 12.9 | 0.00 | 0.00 | 0.00 | 53 | 1023.0 |
| 20260509001226 | 17 | 275 | 6.4 | 12.9 | 0.00 | 0.00 | 0.00 | 51 | 1023.0 |
| 20260509000754 | 17 | 279 | 3.2 | 11.3 | 0.00 | 0.00 | 0.00 | 53 | 1022.9 |
| 20260509000722 | 17 | 279 | 3.2 | 11.3 | 0.00 | 0.00 | 0.00 | 53 | 1022.9 |
| 20260509000230 | 17 | 103 | 1.6 | 3.2 | 0.00 | 0.00 | 0.00 | 53 | 1022.9 |
| 20260508235737 | 16 | 167 | 1.6 | 16.1 | 0.00 | 0.00 | 0.00 | 54 | 1022.8 |
| 20260508235306 | 16 | 302 | 3.2 | 16.1 | 0.00 | 0.00 | 0.00 | 54 | 1022.8 |
| 20260508234721 | 16 | 271 | 4.8 | 9.7 | 0.00 | 0.00 | 0.00 | 53 | 1022.7 |
| 20260508234229 | 16 | 304 | 1.6 | 6.4 | 0.00 | 0.00 | 0.00 | 55 | 1022.8 |
| 20260508233757 | 16 | 96 | 3.2 | 6.4 | 0.00 | 0.00 | 0.00 | 52 | 1022.7 |
| 20260508233234 | 16 | 63 | 1.6 | 12.9 | 0.00 | 0.00 | 0.00 | 55 | 1022.9 |
| 20260508232740 | 16 | 59 | 1.6 | 12.9 | 0.00 | 0.00 | 0.00 | 54 | 1022.8 |
| 20260508232228 | 16 | 157 | 3.2 | 14.5 | 0.00 | 0.00 | 0.00 | 53 | 1022.9 |
| 20260508231755 | 16 | 290 | 3.2 | 12.9 | 0.00 | 0.00 | 0.00 | 53 | 1022.9 |
| 20260508231235 | 17 | 101 | 3.2 | 9.7 | 0.00 | 0.00 | 0.00 | 52 | 1022.9 |
| 20260508230802 | 17 | 240 | 4.8 | 17.7 | 0.00 | 0.00 | 0.00 | 51 | 1022.9 |
| 20260508230239 | 17 | 340 | 6.4 | 16.1 | 0.00 | 0.00 | 0.00 | 51 | 1022.9 |
| 20260508225726 | 17 | 198 | 4.8 | 12.9 | 0.00 | 0.00 | 0.00 | 52 | 1022.7 |
| 20260508225234 | 16 | 138 | 4.8 | 12.9 | 0.00 | 0.00 | 0.00 | 53 | 1022.8 |
| 20260508224721 | 16 | 26 | 4.8 | 14.5 | 0.00 | 0.00 | 0.00 | 55 | 1022.9 |
| 20260508224229 | 16 | 262 | 8.0 | 14.5 | 0.00 | 0.00 | 0.00 | 54 | 1022.8 |
| 20260508223737 | 16 | 290 | 6.4 | 14.5 | 0.00 | 0.00 | 0.00 | 54 | 1023.0 |
| 20260508223225 | 16 | 266 | 4.8 | 9.7 | 0.00 | 0.00 | 0.00 | 54 | 1022.9 |
| 20260508222732 | 16 | 246 | 1.6 | 12.9 | 0.00 | 0.00 | 0.00 | 56 | 1022.9 |
| 20260508222300 | 15 | 93 | 3.2 | 16.1 | 0.00 | 0.00 | 0.00 | 54 | 1022.8 |
| 20260508221721 | 16 | 294 | 6.4 | 14.5 | 0.00 | 0.00 | 0.00 | 54 | 1023.0 |
| 20260508221229 | 16 | 286 | 3.2 | 14.5 | 0.00 | 0.00 | 0.00 | 55 | 1023.1 |
| 20260508220756 | 16 | 262 | 4.8 | 14.5 | 0.00 | 0.00 | 0.00 | 55 | 1023.1 |
| 20260508220725 | 16 | 262 | 4.8 | 14.5 | 0.00 | 0.00 | 0.00 | 55 | 1023.1 |
| 20260508220233 | 15 | 266 | 3.2 | 14.5 | 0.00 | 0.00 | 0.00 | 56 | 1022.9 |
| 20260508215800 | 15 | 277 | 6.4 | 14.5 | 0.00 | 0.00 | 0.00 | 55 | 1022.9 |
| 20260508215237 | 15 | 29 | 3.2 | 19.3 | 0.00 | 0.00 | 0.00 | 55 | 1022.9 |
| 20260508214724 | 15 | 276 | 3.2 | 19.3 | 0.00 | 0.00 | 0.00 | 57 | 1022.9 |
| 20260508214232 | 15 | 298 | 8.0 | 16.1 | 0.00 | 0.00 | 0.00 | 57 | 1022.9 |
| 20260508213740 | 15 | 327 | 3.2 | 17.7 | 0.00 | 0.00 | 0.00 | 57 | 1022.8 |
| 20260508213228 | 15 | 246 | 8.0 | 17.7 | 0.00 | 0.00 | 0.00 | 57 | 1022.8 |
| 20260508212735 | 15 | 330 | 4.8 | 17.7 | 0.00 | 0.00 | 0.00 | 56 | 1022.9 |
| 20260508212223 | 15 | 279 | 1.6 | 12.9 | 0.00 | 0.00 | 0.00 | 58 | 1022.8 |
| 20260508211735 | 15 | 259 | 4.8 | 12.9 | 0.00 | 0.00 | 0.00 | 57 | 1022.7 |
| 20260508211223 | 15 | 286 | 3.2 | 9.7 | 0.00 | 0.00 | 0.00 | 56 | 1022.7 |
| 20260508210811 | 15 | 183 | 1.6 | 8.0 | 0.00 | 0.00 | 0.00 | 57 | 1022.6 |
| 20260508210308 | 15 | 304 | 3.2 | 12.9 | 0.00 | 0.00 | 0.00 | 58 | 1022.6 |
| 20260508205723 | 15 | 259 | 3.2 | 11.3 | 0.00 | 0.00 | 0.00 | 56 | 1022.6 |
| 20260508205230 | 15 | 115 | 1.6 | 11.3 | 0.00 | 0.00 | 0.00 | 56 | 1022.5 |
| 20260508204758 | 15 | 246 | 1.6 | 11.3 | 0.00 | 0.00 | 0.00 | 57 | 1022.4 |
| 20260508204234 | 15 | 24 | 1.6 | 11.3 | 0.00 | 0.00 | 0.00 | 57 | 1022.3 |
| 20260508203722 | 15 | 207 | 1.6 | 6.4 | 0.00 | 0.00 | 0.00 | 58 | 1022.3 |
| 20260508203230 | 14 | 99 | 3.2 | 6.4 | 0.00 | 0.00 | 0.00 | 58 | 1022.4 |
| 20260508202737 | 14 | 103 | 1.6 | 8.0 | 0.00 | 0.00 | 0.00 | 59 | 1022.5 |
| 20260508202225 | 14 | 281 | 4.8 | 9.7 | 0.00 | 0.00 | 0.00 | 60 | 1022.4 |
| 20260508201753 | 13 | 233 | 3.2 | 16.1 | 0.00 | 0.00 | 0.00 | 60 | 1022.5 |
| 20260508201230 | 14 | 288 | 4.8 | 16.1 | 0.00 | 0.00 | 0.00 | 59 | 1022.5 |
| 20260508200722 | 14 | 65 | 4.8 | 12.9 | 0.00 | 0.00 | 0.00 | 58 | 1022.6 |
| 20260508200230 | 14 | 9 | 3.2 | 6.4 | 0.00 | 0.00 | 0.00 | 57 | 1022.6 |
| 20260508195756 | 14 | 9 | 3.2 | 11.3 | 0.00 | 0.00 | 0.00 | 59 | 1022.5 |
| 20260508195253 | 14 | 19 | 6.4 | 11.3 | 0.00 | 0.00 | 0.00 | 59 | 1022.4 |
| 20260508194809 | 14 | 360 | 4.8 | 9.7 | 0.00 | 0.00 | 0.00 | 58 | 1022.3 |
| 20260508194225 | 14 | 21 | 3.2 | 12.9 | 0.00 | 0.00 | 0.00 | 58 | 1022.3 |
| 20260508193733 | 14 | 284 | 6.4 | 19.3 | 0.00 | 0.00 | 0.00 | 59 | 1022.2 |
| 20260508193241 | 14 | 336 | 6.4 | 19.3 | 0.00 | 0.00 | 0.00 | 59 | 1022.2 |
| 20260508192808 | 14 | 130 | 3.2 | 9.7 | 0.00 | 0.00 | 0.00 | 61 | 1022.3 |
| 20260508192736 | 14 | 130 | 3.2 | 9.7 | 0.00 | 0.00 | 0.00 | 61 | 1022.3 |
| 20260508192306 | 13 | 318 | 3.2 | 11.3 | 0.00 | 0.00 | 0.00 | 63 | 1022.2 |
| 20260508192232 | 13 | 318 | 3.2 | 11.3 | 0.00 | 0.00 | 0.00 | 63 | 1022.2 |
| 20260508191740 | 13 | 261 | 4.8 | 16.1 | 0.00 | 0.00 | 0.00 | 62 | 1022.2 |
| 20260508191307 | 13 | 338 | 1.6 | 16.1 | 0.00 | 0.00 | 0.00 | 66 | 1022.2 |
| 20260508191236 | 13 | 338 | 1.6 | 16.1 | 0.00 | 0.00 | 0.00 | 66 | 1022.2 |
| 20260508190800 | 12 | 248 | 1.6 | 16.1 | 0.00 | 0.00 | 0.00 | 67 | 1022.3 |
| 20260508190237 | 12 | 314 | 1.6 | 16.1 | 0.00 | 0.00 | 0.00 | 68 | 1022.3 |
| 20260508185803 | 12 | 158 | 3.2 | 8.0 | 0.00 | 0.00 | 0.00 | 67 | 1022.3 |